Wind_Speed
2 2 2 3 5 6 8 9 10 12 14 15 17 19 21 23 25 27 28 30 32 35 36 37 38 40 42 42 42 43 43 44 44 44 45 45 45 46 46 46 46 46 46 46
4 5 5 6 7 8 9 11 13 13 14 16 16 17 19 21 23 26 28 30 32 33 35 36 36 38 39 40 41 41 42 42 42 42 43 43 43 44 44 44 44 44 44 44
6 7 7 8 9 10 11 12 14 15 16 18 18 18 18 20 22 25 27 28 29 31 33 34 35 37 38 39 40 40 40 41 41 42 42 42 43 43 43 43 43 43 43 43
8 9 9 10 11 12 13 14 15 15 16 17 18 18 19 20 22 24 26 27 27 29 31 32 34 36 37 39 40 40 39 39 40 41 42 42 42 42 42 42 42 42 42 42
10 10 11 11 13 14 15 15 16 17 18 19 19 19 19 20 22 23 25 26 27 29 32 32 33 35 36 37 39 40 40 40 40 41 41 41 41 41 41 42 42 42 42 42
13 13 14 14 16 17 18 18 19 19 19 20 20 21 20 20 21 23 25 26 27 29 30 32 32 34 35 35 37 38 39 39 39 40 40 40 40 40 40 40 41 41 41 42
15 16 16 17 17 18 19 20 20 21 21 21 21 22 22 22 22 23 24 26 27 28 29 30 31 32 33 34 35 36 37 38 38 38 38 39 38 38 39 39 40 40 40 41
17 17 18 19 20 20 21 22 22 22 22 22 22 23 23 24 24 24 25 26 27 28 29 30 30 31 32 33 33 34 35 36 37 37 37 38 38 38 39 39 39 39 39 40
18 18 19 20 21 22 23 24 24 24 24 24 24 24 24 25 25 26 26 26 27 28 28 29 29 30 30 31 33 33 34 35 35 36 36 37 37 38 38 38 38 38 39 39
18 19 21 21 23 24 25 26 26 26 25 25 25 25 26 26 27 27 27 27 27 27 28 29 29 29 30 30 31 32 33 34 34 35 35 36 36 36 36 36 36 36 36 37
19 20 21 22 24 25 27 27 28 27 27 27 26 26 27 28 28 28 28 28 28 27 28 29 29 29 29 30 31 31 32 32 33 33 33 34 34 35 36 36 35 35 36 36
22 23 23 24 26 27 28 29 29 29 29 28 28 28 29 29 29 28 28 27 28 28 28 29 29 29 29 30 30 31 31 32 32 32 32 33 33 34 34 34 34 34 34 34
24 25 26 26 28 29 30 30 30 30 29 28 28 28 29 29 29 28 28 28 28 28 28 28 29 29 29 29 29 30 30 31 31 32 32 32 32 32 33 33 33 33 33 33
27 27 28 29 29 31 32 31 31 31 30 29 28 29 29 29 29 28 28 28 28 28 28 28 29 29 29 29 29 30 30 30 31 31 31 32 32 32 32 32 32 32 32 32
29 29 30 31 32 33 33 33 33 32 31 30 29 29 29 29 29 28 28 28 29 29 29 29 29 29 30 30 30 30 31 31 31 32 32 32 32 32 32 32 31 32 32 32
31 32 32 33 34 35 35 35 34 33 32 31 30 29 29 29 29 29 28 29 29 29 29 29 29 30 30 30 30 30 31 31 31 31 31 31 31 32 32 32 32 32 32 32
33 34 35 36 36 36 36 36 35 34 33 31 29 29 28 29 29 29 29 30 30 30 30 30 30 30 30 30 30 30 30 30 30 31 31 31 31 31 31 31 32 32 32 32
36 36 37 37 38 37 37 36 35 33 32 30 28 28 28 28 28 29 29 29 29 29 30 30 31 31 30 30 30 30 30 30 30 30 30 30 30 30 30 30 31 31 32 31
38 38 39 39 39 39 38 37 35 33 31 29 28 27 27 26 26 27 27 28 28 28 28 29 29 30 30 30 30 30 30 30 30 30 30 30 30 30 30 31 31 31 31 31
40 40 40 40 40 39 38 37 34 31 29 28 27 26 26 25 25 25 25 26 26 27 27 28 28 29 30 30 30 30 30 30 30 30 31 31 31 31 31 31 31 31 31 31
41 41 41 40 40 39 37 34 32 29 27 26 26 26 26 26 25 25 25 25 25 25 26 26 27 28 28 29 29 29 29 29 30 31 31 32 32 31 31 31 31 31 31 31
42 42 41 40 39 37 35 32 30 28 27 26 26 26 26 26 26 25 25 25 25 24 24 24 25 26 26 27 27 28 28 28 29 30 30 31 31 31 31 31 32 32 32 32
43 42 41 40 38 35 33 31 29 28 27 26 26 26 26 25 25 25 24 23 23 23 23 24 25 25 25 26 26 27 27 27 27 27 28 29 29 30 30 31 32 32 33 33
43 42 40 39 36 34 32 31 30 29 28 27 26 26 25 25 24 24 23 23 23 23 23 23 24 24 24 24 25 26 26 26 26 26 27 27 28 29 30 30 31 32 32 33
43 41 40 38 35 34 33 32 31 30 28 27 26 26 25 24 23 22 22 22 22 22 22 23 23 23 23 23 24 24 25 25 26 26 26 27 28 29 29 30 30 31 32 32
42 40 38 36 35 34 33 32 31 30 28 27 26 25 24 22 22 21 21 21 21 21 21 22 22 23 23 24 24 24 24 24 25 26 26 26 27 27 28 29 29 30 30 31
41 39 37 35 35 34 33 32 31 29 28 26 25 24 23 22 21 21 20 20 20 21 21 22 22 23 23 24 24 24 24 24 24 24 25 25 26 27 27 28 28 28 29 29
Wind_Direction
2 325 317 310 306 293 283 278 282 278 271 268 264 256 251 247 244 241 241 241 240 239 238 239 239 239 239 240 240 242 244 245 248 250 252 254 255 257 259 260 262 265 267 269
312 299 299 292 295 292 285 280 284 286 281 277 273 265 257 252 248 245 243 243 241 240 239 238 238 239 239 239 239 241 243 245 247 250 252 254 256 257 259 260 262 264 265 267
293 287 288 287 286 289 291 290 287 287 287 283 278 268 262 258 254 250 248 247 244 242 241 240 240 240 241 241 240 242 243 245 248 250 252 255 256 257 259 260 262 264 265 267
293 286 283 286 285 291 295 295 293 291 289 287 282 273 268 264 260 256 252 250 246 244 243 242 241 242 242 243 243 243 244 246 249 251 253 255 256 257 258 260 262 264 266 267
293 288 286 283 283 288 293 296 296 293 288 287 284 279 274 267 263 259 256 252 249 248 245 245 244 245 245 245 245 245 246 248 250 252 253 254 256 257 259 260 262 264 266 268
292 289 288 284 285 288 291 294 296 295 293 289 286 282 277 271 267 263 260 256 254 253 250 248 247 247 247 247 247 247 247 249 251 252 253 255 257 258 259 261 263 264 266 268
293 292 290 287 288 291 293 295 296 294 292 290 287 284 280 275 270 267 263 259 258 256 254 251 249 248 248 248 248 248 249 250 252 253 254 255 257 258 260 262 264 266 268 269
297 294 293 292 291 293 294 294 295 294 292 289 287 284 280 276 274 271 266 263 262 258 256 253 251 249 250 250 249 250 250 251 253 254 255 256 257 259 261 263 265 266 268 269
301 298 296 297 295 294 294 294 294 293 291 290 287 282 278 275 275 272 270 266 265 260 256 255 253 252 252 252 251 252 251 252 254 255 256 257 258 260 262 264 266 267 268 269
306 301 298 298 297 295 294 294 293 292 291 289 286 283 278 276 274 272 271 268 265 260 255 254 253 253 253 252 251 252 253 254 255 256 257 258 259 260 262 263 266 267 268 269
311 307 304 302 300 298 296 295 293 292 291 289 285 282 280 278 276 274 272 268 264 259 256 255 254 255 254 254 253 252 253 254 255 256 257 258 259 260 261 263 265 266 268 269
312 309 308 306 304 303 300 297 294 292 291 290 287 284 281 279 277 274 270 267 264 259 257 256 254 255 255 255 255 254 255 255 256 256 257 259 260 261 262 263 265 267 267 268
314 311 309 308 307 305 303 301 297 295 293 290 288 284 281 279 278 274 270 267 264 259 257 256 256 255 256 256 256 256 256 256 257 258 259 260 260 261 262 264 265 267 267 268
315 312 310 309 308 307 306 303 298 296 293 290 287 285 282 280 278 275 271 267 264 260 259 258 257 257 257 258 258 256 256 257 258 258 259 260 260 261 263 264 265 266 267 268
316 314 311 310 308 308 307 304 301 298 294 291 287 284 281 279 276 273 271 268 265 262 260 259 259 258 257 259 259 258 258 259 259 259 260 261 261 262 263 264 265 266 267 269
316 314 313 312 311 309 308 306 303 300 297 292 288 283 281 280 277 273 271 269 266 263 261 260 260 259 258 258 259 259 259 259 260 261 261 262 262 262 263 264 265 266 268 269
315 314 313 313 313 311 310 307 304 302 297 293 288 284 282 281 278 274 273 271 268 266 263 261 260 260 260 259 259 260 260 260 261 262 262 263 263 263 264 265 266 267 268 269
314 314 313 313 313 313 311 309 306 302 298 293 289 285 284 282 279 277 275 272 270 267 264 262 261 260 260 259 260 260 261 261 261 261 262 263 264 265 265 266 267 267 268 269
315 314 313 313 314 313 312 311 308 303 297 292 287 286 285 283 281 279 277 273 270 268 265 263 261 259 259 259 260 260 260 260 261 261 263 264 265 266 266 267 268 268 269 269
315 315 314 313 314 314 312 312 310 303 297 292 288 287 286 284 281 280 280 277 273 269 266 263 262 260 259 259 260 261 261 261 262 262 264 265 266 267 267 267 268 268 269 269
315 315 314 313 314 314 312 311 309 304 299 293 290 288 287 284 282 280 279 276 273 270 268 265 263 261 259 259 260 261 261 262 263 264 265 265 266 267 267 267 268 268 269 269
315 315 314 313 314 313 312 309 307 304 301 296 292 290 288 284 281 280 279 275 271 270 269 266 263 260 259 260 261 261 262 264 265 266 266 266 266 267 267 267 268 268 269 269
314 314 313 313 313 312 309 307 304 304 302 298 294 291 288 285 282 280 278 274 270 269 269 267 265 263 261 261 260 261 263 265 267 267 267 267 267 268 268 268 269 269 269 270
314 314 313 313 312 309 306 304 303 302 301 298 293 291 289 286 283 280 277 275 272 271 270 268 266 264 263 262 261 262 264 265 267 268 268 268 269 269 270 271 272 272 272 272
313 314 313 312 310 307 306 304 302 300 299 297 293 291 289 287 283 280 277 275 274 272 269 266 264 263 262 262 262 263 264 266 268 270 271 271 271 272 272 273 274 275 275 276
313 313 312 310 308 307 306 304 303 301 299 296 293 289 287 286 282 279 277 276 275 273 269 266 264 262 263 263 264 264 266 268 270 272 273 273 274 274 275 275 276 277 277 278
312 312 310 308 307 306 306 304 303 302 300 297 293 289 285 283 281 279 277 275 274 274 271 268 265 264 264 265 265 266 268 270 272 273 274 274 275 277 277 277 278 278 279 280
Height
5640 5639 5639 5638 5638 5637 5636 5636 5635 5634 5633 5633 5631 5631 5631 5631 5632 5633 5635 5636 5638 5640 5643 5646 5649 5652 5655 5658 5661 5665 5668 5671 5674 5676 5678 5681 5682 5684 5685 5687 5688 5688 5689 5689
5640 5639 5638 5637 5636 5635 5634 5633 5632 5630 5629 5627 5626 5625 5625 5625 5625 5626 5627 5628 5629 5631 5634 5636 5639 5642 5645 5648 5651 5654 5657 5660 5663 5666 5668 5670 5672 5673 5674 5675 5676 5677 5678 5678
5638 5637 5636 5636 5634 5632 5631 5630 5628 5626 5625 5622 5621 5620 5619 5619 5618 5618 5619 5620 5621 5623 5625 5627 5630 5632 5635 5638 5641 5644 5648 5650 5653 5655 5657 5659 5661 5662 5663 5664 5665 5666 5666 5666
5635 5635 5634 5635 5631 5629 5627 5626 5624 5622 5620 5618 5616 5614 5613 5613 5612 5611 5612 5612 5613 5615 5617 5619 5621 5623 5626 5629 5632 5635 5638 5640 5643 5645 5647 5648 5650 5651 5652 5653 5654 5655 5655 5655
5633 5631 5630 5630 5627 5625 5624 5622 5619 5617 5615 5613 5610 5609 5609 5607 5605 5605 5605 5605 5606 5607 5609 5610 5612 5614 5616 5619 5622 5625 5627 5630 5632 5634 5636 5638 5639 5640 5641 5642 5643 5644 5644 5643
5629 5627 5626 5627 5623 5621 5620 5617 5615 5612 5609 5607 5605 5604 5604 5602 5600 5599 5598 5599 5599 5600 5601 5602 5604 5606 5608 5610 5612 5615 5617 5620 5622 5624 5626 5627 5628 5630 5630 5631 5632 5632 5632 5632
5625 5623 5622 5621 5618 5616 5615 5613 5609 5606 5604 5602 5599 5598 5596 5594 5594 5593 5592 5592 5592 5592 5593 5594 5596 5597 5599 5601 5603 5605 5607 5610 5611 5613 5615 5616 5618 5619 5620 5621 5621 5621 5621 5621
5620 5618 5619 5615 5612 5611 5609 5605 5603 5600 5598 5595 5593 5591 5589 5587 5586 5585 5585 5584 5584 5584 5585 5586 5587 5589 5590 5592 5594 5596 5598 5600 5601 5603 5604 5606 5607 5608 5609 5610 5610 5610 5610 5610
5616 5616 5612 5609 5606 5604 5601 5599 5596 5593 5591 5588 5586 5584 5582 5580 5579 5578 5577 5576 5576 5576 5577 5578 5579 5580 5582 5583 5585 5587 5588 5590 5591 5593 5594 5596 5597 5598 5598 5599 5599 5599 5599 5599
5610 5608 5605 5603 5600 5597 5594 5591 5588 5586 5583 5580 5578 5576 5574 5573 5571 5570 5569 5568 5567 5567 5568 5570 5571 5572 5573 5575 5576 5577 5579 5580 5582 5583 5584 5585 5586 5587 5588 5588 5589 5589 5589 5588
5605 5602 5599 5596 5593 5590 5587 5583 5580 5578 5575 5572 5570 5568 5566 5564 5563 5561 5560 5559 5559 5559 5560 5561 5562 5563 5565 5566 5567 5568 5570 5571 5572 5573 5574 5575 5576 5577 5577 5578 5578 5579 5578 5578
5600 5596 5593 5590 5586 5582 5579 5575 5572 5569 5567 5564 5561 5559 5557 5555 5553 5552 5551 5550 5550 5551 5551 5552 5554 5555 5556 5557 5558 5559 5560 5561 5563 5564 5565 5566 5566 5567 5567 5568 5568 5568 5568 5568
5593 5589 5586 5582 5578 5574 5570 5566 5563 5560 5557 5554 5552 5549 5547 5545 5544 5542 5542 5541 5541 5542 5543 5544 5545 5546 5547 5548 5549 5550 5551 5552 5553 5554 5555 5556 5557 5557 5558 5558 5558 5558 5558 5558
5586 5582 5578 5574 5570 5566 5561 5556 5553 5550 5547 5544 5541 5539 5537 5535 5534 5533 5532 5532 5532 5533 5534 5535 5536 5537 5538 5539 5540 5541 5542 5543 5544 5545 5545 5546 5547 5547 5548 5548 5548 5548 5548 5548
5578 5574 5571 5566 5562 5557 5552 5548 5544 5540 5537 5534 5531 5529 5527 5525 5524 5524 5523 5523 5523 5524 5525 5526 5527 5528 5529 5529 5530 5531 5532 5533 5534 5535 5536 5536 5537 5537 5538 5538 5538 5538 5538 5538
5571 5567 5562 5558 5553 5548 5543 5538 5534 5530 5526 5523 5521 5519 5517 5516 5515 5514 5514 5514 5514 5514 5515 5516 5517 5518 5519 5520 5521 5522 5523 5523 5524 5525 5526 5526 5527 5527 5528 5528 5528 5528 5528 5528
5564 5559 5554 5549 5543 5538 5533 5528 5523 5519 5516 5513 5511 5509 5507 5506 5505 5504 5504 5503 5504 5504 5505 5506 5507 5508 5509 5510 5511 5512 5513 5514 5514 5515 5516 5516 5517 5517 5518 5518 5518 5518 5518 5518
5555 5550 5545 5539 5534 5528 5523 5517 5513 5509 5505 5503 5501 5499 5497 5496 5495 5494 5493 5493 5493 5493 5494 5495 5497 5498 5499 5500 5501 5502 5503 5504 5505 5505 5506 5507 5507 5507 5508 5508 5508 5508 5508 5508
5546 5540 5535 5529 5524 5518 5513 5507 5502 5498 5495 5493 5491 5489 5488 5487 5486 5485 5483 5483 5483 5483 5484 5484 5486 5487 5489 5490 5491 5492 5493 5494 5495 5495 5496 5497 5497 5498 5498 5498 5498 5498 5498 5498
5536 5531 5525 5519 5514 5508 5503 5497 5492 5488 5485 5483 5482 5480 5479 5478 5476 5475 5474 5474 5473 5473 5474 5474 5475 5477 5478 5480 5481 5482 5483 5484 5485 5485 5486 5487 5487 5488 5488 5488 5488 5488 5488 5488
5527 5521 5515 5510 5504 5499 5493 5488 5484 5480 5477 5475 5473 5472 5470 5469 5468 5466 5465 5465 5464 5464 5464 5465 5465 5466 5468 5470 5471 5472 5473 5474 5474 5475 5476 5476 5477 5477 5477 5477 5478 5478 5477 5477
5517 5511 5506 5500 5495 5490 5485 5480 5476 5473 5470 5467 5465 5463 5462 5460 5459 5458 5456 5456 5455 5455 5455 5455 5456 5457 5458 5460 5461 5462 5463 5464 5464 5465 5465 5466 5466 5467 5467 5467 5467 5467 5467 5467
5507 5502 5496 5491 5486 5481 5476 5472 5469 5465 5462 5460 5457 5455 5453 5452 5450 5449 5448 5447 5447 5447 5447 5447 5447 5448 5449 5451 5452 5453 5454 5454 5455 5455 5455 5456 5456 5456 5456 5456 5456 5456 5456 5456
5497 5492 5487 5482 5477 5472 5468 5465 5461 5458 5455 5452 5449 5447 5445 5443 5442 5441 5440 5439 5439 5439 5438 5438 5439 5440 5440 5441 5443 5444 5445 5445 5446 5446 5446 5446 5446 5446 5446 5446 5446 5445 5445 5444
5487 5482 5477 5472 5468 5464 5460 5456 5453 5450 5447 5444 5441 5439 5437 5435 5434 5433 5432 5432 5431 5431 5431 5431 5431 5431 5432 5433 5434 5435 5436 5436 5436 5437 5437 5437 5436 5436 5436 5436 5435 5434 5434 5433
5478 5473 5468 5463 5459 5455 5451 5448 5444 5441 5438 5435 5433 5431 5429 5428 5427 5426 5425 5425 5424 5423 5423 5423 5423 5424 5424 5425 5426 5426 5427 5427 5427 5427 5427 5427 5427 5426 5426 5425 5425 5424 5423 5422
5468 5463 5459 5455 5450 5446 5443 5439 5436 5433 5430 5427 5425 5423 5422 5421 5420 5419 5418 5417 5417 5416 5416 5416 5416 5416 5416 5417 5417 5418 5418 5418 5419 5419 5418 5418 5418 5417 5416 5415 5414 5413 5412 5411